RH
57 53 54 54 52 59 61 54 60 39 43 27 24 21 19 20 20 33 56 77 86 91 94 93 87 80 83 79 74 72 70 72 83 82 68 58 51 43 26 19 16 15 52 67
63 51 56 56 52 52 56 54 55 49 47 29 22 19 20 22 22 33 67 80 90 93 95 97 87 80 83 82 80 80 78 77 91 88 70 60 53 48 31 20 16 15 48 65
58 53 52 53 53 51 51 53 45 49 29 28 23 22 21 21 23 37 71 89 93 96 96 95 84 78 82 83 81 80 83 80 89 79 72 58 53 51 36 21 16 15 42 67
70 57 61 52 49 45 44 44 39 37 32 29 25 24 22 22 27 35 75 93 95 95 95 90 80 80 85 85 84 93 95 81 83 76 69 59 55 48 36 23 17 16 42 65
77 72 53 48 51 52 47 41 34 33 33 29 26 26 21 24 28 32 77 97 98 98 96 87 72 82 90 77 79 96 95 81 78 71 64 55 50 42 30 24 18 22 51 63
85 78 68 60 54 50 44 43 34 32 33 31 27 26 21 22 22 23 66 98 96 96 97 79 67 81 88 84 81 95 96 82 73 72 60 52 49 41 28 24 18 29 53 65
90 83 68 59 57 53 42 43 35 30 30 30 31 27 26 24 22 25 51 93 97 97 96 81 68 76 75 71 78 94 89 84 77 70 58 56 49 42 29 24 20 35 54 63
89 88 73 59 59 53 46 40 33 29 29 29 27 25 26 25 22 22 31 78 94 96 96 86 69 77 69 65 76 81 84 83 75 65 59 54 47 39 30 26 21 32 61 64
80 76 70 60 57 50 42 37 31 28 27 28 27 24 25 25 24 24 29 65 97 97 96 95 68 68 68 66 68 65 70 77 67 63 56 55 50 32 26 24 22 51 72 68
73 68 66 59 56 47 38 34 30 28 25 27 26 23 24 24 26 25 26 37 94 97 96 96 89 59 67 68 69 67 67 72 67 63 60 57 39 29 24 21 21 58 73 66
70 67 65 59 53 47 37 32 30 27 24 25 25 22 23 24 25 26 27 29 66 97 97 96 91 73 61 61 69 65 58 60 68 66 57 47 33 25 20 20 30 71 75 70
78 72 65 56 52 46 37 33 30 27 23 24 25 22 22 23 23 26 27 27 32 92 97 97 97 77 69 61 60 62 58 56 55 57 55 40 29 24 24 48 73 78 76 68
74 73 67 58 54 47 39 34 30 27 24 24 23 22 20 20 23 25 23 25 28 39 97 97 97 89 69 60 56 50 53 54 52 51 41 32 27 21 51 63 83 85 73 66
74 75 69 63 56 48 42 36 31 28 24 23 23 20 18 19 21 22 24 25 28 28 52 97 96 96 76 57 56 52 46 45 38 36 31 33 26 45 60 78 89 73 68 73
73 74 67 64 57 49 44 36 32 28 23 22 21 19 18 18 21 23 24 23 25 26 30 69 97 97 94 80 64 54 47 45 36 36 33 36 44 57 67 85 69 74 86 83
73 74 72 69 60 54 46 36 32 27 24 22 21 19 18 18 20 20 21 21 23 25 27 44 81 97 97 96 76 68 57 44 43 48 46 42 56 66 59 72 83 87 86 76
72 75 74 69 62 53 44 36 33 28 25 23 22 20 20 18 17 17 18 21 23 23 24 29 53 87 95 96 96 98 92 83 72 62 56 52 61 66 63 64 77 79 79 79
72 71 63 62 57 50 40 37 34 28 24 23 22 21 21 20 20 21 21 19 20 21 21 23 37 59 85 95 97 97 98 98 87 94 92 89 77 66 76 84 89 89 88 89
72 73 65 60 53 48 40 38 34 28 25 23 22 22 22 22 21 21 20 21 19 21 23 22 25 35 63 84 95 98 97 98 97 98 98 99 99 97 95 99 96 89 93 98
75 73 66 58 54 47 41 39 32 28 25 24 23 22 22 23 21 19 20 22 25 26 26 24 23 27 37 63 80 91 97 98 98 98 97 94 86 86 98 96 99 96 92 95
78 70 64 58 52 47 44 37 30 28 26 24 23 23 23 24 23 20 19 19 20 24 23 24 26 28 28 43 66 85 91 97 97 98 98 98 99 99 94 86 90 84 85 82
75 70 62 56 49 48 44 36 31 29 26 25 25 25 24 24 23 23 23 23 21 24 23 23 28 31 30 32 53 71 87 91 94 97 97 98 98 98 98 98 97 94 86 84
74 66 58 53 50 50 44 36 31 29 27 27 27 27 26 25 24 21 21 22 22 24 24 25 28 30 31 32 39 61 75 89 94 96 97 97 98 97 98 98 98 98 99 98
69 60 56 54 54 49 43 36 32 30 28 28 29 28 29 30 28 26 27 27 26 26 26 27 29 31 32 33 35 48 66 80 91 95 94 97 97 98 95 95 99 98 98 98
63 59 56 55 54 46 42 37 33 31 30 31 30 29 29 28 27 26 26 26 26 27 28 29 32 33 35 37 40 41 59 72 88 92 91 92 96 97 96 96 96 96 96 97
61 59 58 56 51 45 43 39 35 33 32 32 31 30 29 29 28 28 27 26 27 28 29 31 33 35 38 40 44 46 49 65 81 93 93 93 92 94 96 97 97 98 97 98
59 60 63 55 49 46 43 40 36 35 34 32 31 31 29 28 28 28 27 26 28 30 30 32 35 37 40 43 46 50 54 58 74 89 96 96 96 93 93 94 95 98 98 98